UAL483 KDEN-KSAV

Flight info

Callsign UAL483
Flight time 2h 41m
Altitude 37000
Route EPKEE7 GAETR HYS KK51C NALLY KM39I WLDER KT24O MCN DBN LOTTS SAV
Aircraft A20N/M-SDE2E3FGHIRWXY/LB1

Departure

Time 2026-04-20 19:24
Airport Denver International Airport (KDEN)

Arrival

Time 2026-04-20 22:05
Airport Savannah Hilton Head International Airport (KSAV)
Time Latitude Longitude Altitude Speed Heading
2026-04-20 19:07 39.85804 -104.67035 5387 ft 0 kts
2026-04-20 19:17 39.85792 -104.67035 5382 ft 3 kts
2026-04-20 19:17 39.85774 -104.67036 5386 ft 3 kts
2026-04-20 19:17 39.85757 -104.67036 5385 ft 3 kts
2026-04-20 19:17 39.85742 -104.67029 5385 ft 2 kts 332°
2026-04-20 19:18 39.85726 -104.67026 5385 ft 2 kts 43°
2026-04-20 19:18 39.85719 -104.67035 5386 ft 0 kts 84°
2026-04-20 19:19 39.85720 -104.67011 5384 ft 11 kts 87°
2026-04-20 19:19 39.85720 -104.66884 5386 ft 17 kts 101°
2026-04-20 19:20 39.85662 -104.66733 5386 ft 21 kts 98°
2026-04-20 19:20 39.85671 -104.66527 5386 ft 25 kts 78°
2026-04-20 19:20 39.85681 -104.66299 5395 ft 24 kts 79°
2026-04-20 19:20 39.85807 -104.66233 5393 ft 23 kts
2026-04-20 19:21 39.85971 -104.66227 5391 ft 25 kts
2026-04-20 19:21 39.86149 -104.66225 5386 ft 27 kts 358°
2026-04-20 19:21 39.86342 -104.66228 5381 ft 28 kts 360°
2026-04-20 19:21 39.86532 -104.66228 5386 ft 26 kts
2026-04-20 19:22 39.86722 -104.66225 5378 ft 28 kts
2026-04-20 19:22 39.86926 -104.66222 5373 ft 30 kts
2026-04-20 19:22 39.87143 -104.66217 5367 ft 32 kts
2026-04-20 19:22 39.87367 -104.66216 5365 ft 32 kts
2026-04-20 19:23 39.87588 -104.66214 5361 ft 26 kts
2026-04-20 19:23 39.87745 -104.66172 5359 ft 24 kts 54°
2026-04-20 19:23 39.87756 -104.65933 5356 ft 40 kts 91°
2026-04-20 19:23 39.87751 -104.65218 5354 ft 115 kts 91°
2026-04-20 19:24 39.87743 -104.63908 5332 ft 172 kts 90°
2026-04-20 19:24 39.87725 -104.62314 5996 ft 175 kts 89°
2026-04-20 19:24 39.87716 -104.60729 6777 ft 174 kts 92°
2026-04-20 19:24 39.87495 -104.59214 7370 ft 171 kts 107°
2026-04-20 19:25 39.87027 -104.57703 7442 ft 189 kts 112°
2026-04-20 19:25 39.86488 -104.56071 7636 ft 203 kts 112°
2026-04-20 19:25 39.85932 -104.54333 7880 ft 214 kts 111°
2026-04-20 19:25 39.85361 -104.52481 8134 ft 228 kts 111°
2026-04-20 19:26 39.84722 -104.50483 8273 ft 250 kts 112°
2026-04-20 19:26 39.84000 -104.48299 8427 ft 274 kts 113°
2026-04-20 19:26 39.83213 -104.45941 8766 ft 292 kts 113°
2026-04-20 19:26 39.82395 -104.43490 9373 ft 299 kts 112°
2026-04-20 19:27 39.81576 -104.41035 10094 ft 302 kts 113°
2026-04-20 19:27 39.80714 -104.38447 10323 ft 323 kts 113°
2026-04-20 19:27 39.79773 -104.35693 10509 ft 342 kts 114°
2026-04-20 19:27 39.78780 -104.32840 11050 ft 348 kts 114°
2026-04-20 19:28 39.77769 -104.29956 11668 ft 352 kts 114°
2026-04-20 19:28 39.76750 -104.27053 12316 ft 355 kts 115°
2026-04-20 19:28 39.75721 -104.24113 12929 ft 359 kts 115°
2026-04-20 19:28 39.74685 -104.21149 13583 ft 362 kts 115°
2026-04-20 19:29 39.73643 -104.18164 14182 ft 364 kts 115°
2026-04-20 19:29 39.72593 -104.15152 14730 ft 367 kts 115°
2026-04-20 19:29 39.71531 -104.12115 15255 ft 371 kts 115°
2026-04-20 19:29 39.70455 -104.09064 15790 ft 374 kts 115°
2026-04-20 19:30 39.69361 -104.05975 16309 ft 378 kts 115°
2026-04-20 19:30 39.68257 -104.02869 16845 ft 381 kts 116°
2026-04-20 19:30 39.67138 -103.99732 17381 ft 384 kts 116°
2026-04-20 19:30 39.66010 -103.96569 17928 ft 388 kts 116°
2026-04-20 19:31 39.64852 -103.93398 18425 ft 391 kts 117°
2026-04-20 19:31 39.63608 -103.90234 18908 ft 395 kts 119°
2026-04-20 19:31 39.62309 -103.87086 19411 ft 397 kts 120°
2026-04-20 19:31 39.60977 -103.83929 19911 ft 400 kts 120°
2026-04-20 19:32 39.59640 -103.80749 20397 ft 404 kts 118°
2026-04-20 19:32 39.58546 -103.77375 20871 ft 408 kts 111°
2026-04-20 19:32 39.57561 -103.73906 21351 ft 411 kts 111°
2026-04-20 19:32 39.56580 -103.70410 21830 ft 414 kts 111°
2026-04-20 19:33 39.55593 -103.66889 22315 ft 417 kts 111°
2026-04-20 19:33 39.54596 -103.63338 22767 ft 421 kts 111°
2026-04-20 19:33 39.53589 -103.59770 23220 ft 424 kts 111°
2026-04-20 19:33 39.52569 -103.56173 23661 ft 427 kts 111°
2026-04-20 19:34 39.51538 -103.52550 24036 ft 430 kts 111°
2026-04-20 19:34 39.50501 -103.48913 24419 ft 432 kts 111°
2026-04-20 19:34 39.49459 -103.45253 24773 ft 435 kts 111°
2026-04-20 19:34 39.48411 -103.41571 25129 ft 437 kts 111°
2026-04-20 19:35 39.47357 -103.37872 25484 ft 439 kts 111°
2026-04-20 19:35 39.46308 -103.34208 25843 ft 441 kts 111°
2026-04-20 19:35 39.45237 -103.30480 26198 ft 443 kts 111°
2026-04-20 19:35 39.44162 -103.26743 26549 ft 445 kts 111°
2026-04-20 19:36 39.43080 -103.22981 26890 ft 447 kts 111°
2026-04-20 19:36 39.41992 -103.19203 27217 ft 449 kts 111°
2026-04-20 19:36 39.40900 -103.15408 27543 ft 451 kts 111°
2026-04-20 19:36 39.39802 -103.11598 27876 ft 454 kts 112°
2026-04-20 19:37 39.38697 -103.07768 28205 ft 456 kts 112°
2026-04-20 19:37 39.37586 -103.03919 28528 ft 458 kts 112°
2026-04-20 19:37 39.36469 -103.00054 28850 ft 460 kts 112°
2026-04-20 19:37 39.35377 -102.96163 29161 ft 463 kts 108°
2026-04-20 19:38 39.34639 -102.92107 29475 ft 466 kts 100°
2026-04-20 19:38 39.34137 -102.87953 29779 ft 468 kts 100°
2026-04-20 19:38 39.33635 -102.83789 30127 ft 469 kts 100°
2026-04-20 19:38 39.33131 -102.79630 30509 ft 468 kts 100°
2026-04-20 19:39 39.32626 -102.75482 30878 ft 467 kts 100°
2026-04-20 19:39 39.32120 -102.71348 31291 ft 465 kts 100°
2026-04-20 19:39 39.31613 -102.67220 31693 ft 464 kts 100°
2026-04-20 19:39 39.31108 -102.63110 32082 ft 464 kts 100°
2026-04-20 19:40 39.30600 -102.59002 32461 ft 463 kts 100°
2026-04-20 19:40 39.30090 -102.54897 32844 ft 462 kts 100°
2026-04-20 19:40 39.29580 -102.50807 33225 ft 462 kts 100°
2026-04-20 19:40 39.29069 -102.46719 33602 ft 461 kts 100°
2026-04-20 19:41 39.28557 -102.42629 33977 ft 461 kts 100°
2026-04-20 19:41 39.28046 -102.38552 34295 ft 460 kts 101°
2026-04-20 19:41 39.27531 -102.34476 34592 ft 460 kts 101°
2026-04-20 19:41 39.27014 -102.30403 34867 ft 460 kts 101°
2026-04-20 19:42 39.26494 -102.26336 35132 ft 460 kts 101°
2026-04-20 19:42 39.26150 -102.23642 35301 ft 460 kts 101°
2026-04-20 19:42 39.25630 -102.19574 35558 ft 460 kts 101°
2026-04-20 19:42 39.25108 -102.15503 35711 ft 460 kts 100°
2026-04-20 19:43 39.24411 -102.10060 36051 ft 459 kts 100°
2026-04-20 19:43 39.23892 -102.06000 36288 ft 459 kts 100°
2026-04-20 19:43 39.23371 -102.01933 36519 ft 459 kts 100°
2026-04-20 19:43 39.22848 -101.97865 36727 ft 460 kts 100°
2026-04-20 19:44 39.22345 -101.93966 36932 ft 460 kts 100°
2026-04-20 19:44 39.21459 -101.87167 37042 ft 466 kts 101°
2026-04-20 19:45 39.20353 -101.78860 37029 ft 469 kts 101°
2026-04-20 19:45 39.19267 -101.70588 37043 ft 467 kts 100°
2026-04-20 19:46 39.18182 -101.62323 37036 ft 468 kts 101°
2026-04-20 19:46 39.17078 -101.54053 37033 ft 468 kts 101°
2026-04-20 19:47 39.15972 -101.45780 37027 ft 469 kts 101°
2026-04-20 19:47 39.14860 -101.37506 37019 ft 469 kts 101°
2026-04-20 19:48 39.13734 -101.29233 37022 ft 469 kts 101°
2026-04-20 19:48 39.12601 -101.20951 37030 ft 469 kts 101°
2026-04-20 19:49 39.11464 -101.12669 37038 ft 470 kts 101°
2026-04-20 19:49 39.10332 -101.04387 37050 ft 470 kts 101°
2026-04-20 19:50 39.09186 -100.96096 37063 ft 470 kts 101°
2026-04-20 19:50 39.08028 -100.87811 37067 ft 470 kts 101°
2026-04-20 19:51 39.06879 -100.79528 37058 ft 470 kts 101°
2026-04-20 19:51 39.05727 -100.71240 37061 ft 470 kts 101°
2026-04-20 19:52 39.04574 -100.62956 37054 ft 470 kts 101°
2026-04-20 19:52 39.03413 -100.54672 37053 ft 471 kts 101°
2026-04-20 19:53 39.02246 -100.46443 37040 ft 471 kts 101°
2026-04-20 19:53 39.01065 -100.38159 37040 ft 471 kts 101°
2026-04-20 19:54 38.99882 -100.29877 37039 ft 471 kts 101°
2026-04-20 19:54 38.98697 -100.21596 37042 ft 471 kts 101°
2026-04-20 19:55 38.97501 -100.13312 37045 ft 471 kts 101°
2026-04-20 19:55 38.96301 -100.05033 37052 ft 472 kts 101°
2026-04-20 19:56 38.95094 -99.96749 37052 ft 472 kts 101°
2026-04-20 19:56 38.93879 -99.88468 37052 ft 472 kts 101°
2026-04-20 19:57 38.92650 -99.80196 37053 ft 472 kts 101°
2026-04-20 19:57 38.91424 -99.71919 37057 ft 472 kts 101°
2026-04-20 19:58 38.90198 -99.63647 37067 ft 472 kts 101°
2026-04-20 19:58 38.88964 -99.55374 37068 ft 472 kts 101°
2026-04-20 19:59 38.87715 -99.47103 37074 ft 472 kts 102°
2026-04-20 19:59 38.86455 -99.38837 37075 ft 472 kts 101°
2026-04-20 20:00 38.85200 -99.30568 37103 ft 472 kts 101°
2026-04-20 20:00 38.83395 -99.22499 37104 ft 471 kts 110°
2026-04-20 20:01 38.81274 -99.14547 37087 ft 471 kts 110°
2026-04-20 20:01 38.79147 -99.06596 37093 ft 471 kts 110°
2026-04-20 20:02 38.77017 -98.98644 37070 ft 471 kts 110°
2026-04-20 20:02 38.74878 -98.90703 37073 ft 472 kts 110°
2026-04-20 20:03 38.72730 -98.82765 37076 ft 472 kts 110°
2026-04-20 20:03 38.70622 -98.74979 37082 ft 478 kts 110°
2026-04-20 20:04 38.68421 -98.66860 37068 ft 488 kts 110°
2026-04-20 20:04 38.66167 -98.58604 37090 ft 495 kts 110°
2026-04-20 20:05 38.63880 -98.50237 37090 ft 501 kts 110°
2026-04-20 20:05 38.61569 -98.41796 37109 ft 505 kts 110°
2026-04-20 20:06 38.59240 -98.33292 37107 ft 509 kts 110°
2026-04-20 20:06 38.56879 -98.24730 37121 ft 513 kts 110°
2026-04-20 20:07 38.54496 -98.16148 37478 ft 508 kts 110°
2026-04-20 20:07 38.53322 -98.11922 37851 ft 502 kts 110°
2026-04-20 20:07 38.52162 -98.07744 38217 ft 496 kts 110°
2026-04-20 20:07 38.51016 -98.03617 38588 ft 491 kts 110°
2026-04-20 20:08 38.49880 -97.99525 38921 ft 486 kts 110°
2026-04-20 20:08 38.48756 -97.95474 39228 ft 482 kts 110°
2026-04-20 20:08 38.47644 -97.91464 39539 ft 477 kts 110°
2026-04-20 20:08 38.46532 -97.87501 39800 ft 474 kts 112°
2026-04-20 20:09 38.45324 -97.83586 39863 ft 475 kts 114°
2026-04-20 20:09 38.44049 -97.79698 39602 ft 476 kts 114°
2026-04-20 20:09 38.42760 -97.75802 39257 ft 477 kts 114°
2026-04-20 20:09 38.41495 -97.71905 38924 ft 476 kts 113°
2026-04-20 20:10 38.40279 -97.68042 38532 ft 474 kts 112°
2026-04-20 20:10 38.39081 -97.64128 38107 ft 474 kts 112°
2026-04-20 20:10 38.37903 -97.60205 37690 ft 474 kts 111°
2026-04-20 20:10 38.36731 -97.56278 37301 ft 474 kts 111°
2026-04-20 20:11 38.35555 -97.52355 37093 ft 473 kts 112°
2026-04-20 20:11 38.33174 -97.44524 37144 ft 475 kts 112°
2026-04-20 20:12 38.30762 -97.36689 37150 ft 475 kts 112°
2026-04-20 20:12 38.28339 -97.28858 37162 ft 475 kts 112°
2026-04-20 20:13 38.24702 -97.17118 37161 ft 476 kts 112°
2026-04-20 20:13 38.22270 -97.09289 37169 ft 476 kts 112°
2026-04-20 20:14 38.19842 -97.01462 37171 ft 476 kts 112°
2026-04-20 20:14 38.17407 -96.93627 37181 ft 476 kts 112°
2026-04-20 20:15 38.14964 -96.85803 37177 ft 476 kts 112°
2026-04-20 20:15 38.12509 -96.77992 37186 ft 477 kts 112°
2026-04-20 20:16 38.10045 -96.70166 37182 ft 477 kts 112°
2026-04-20 20:16 38.07583 -96.62338 37196 ft 478 kts 112°
2026-04-20 20:17 38.05106 -96.54511 37199 ft 478 kts 112°
2026-04-20 20:17 38.02618 -96.46683 37207 ft 478 kts 112°
2026-04-20 20:18 38.00132 -96.38860 37198 ft 479 kts 112°
2026-04-20 20:18 37.97640 -96.31026 37205 ft 479 kts 112°
2026-04-20 20:19 37.95127 -96.23193 37216 ft 480 kts 113°
2026-04-20 20:19 37.92627 -96.15411 37219 ft 480 kts 113°
2026-04-20 20:20 37.90113 -96.07577 37233 ft 480 kts 112°
2026-04-20 20:20 37.87598 -95.99739 37226 ft 481 kts 112°
2026-04-20 20:21 37.85066 -95.91903 37225 ft 481 kts 113°
2026-04-20 20:21 37.82513 -95.84064 37227 ft 482 kts 113°
2026-04-20 20:22 37.79955 -95.76235 37222 ft 482 kts 113°
2026-04-20 20:22 37.77405 -95.68409 37227 ft 482 kts 113°
2026-04-20 20:23 37.74855 -95.60573 37246 ft 482 kts 113°
2026-04-20 20:23 37.72293 -95.52749 37248 ft 482 kts 113°
2026-04-20 20:24 37.69722 -95.44928 37246 ft 482 kts 113°
2026-04-20 20:24 37.67147 -95.37109 37247 ft 482 kts 113°
2026-04-20 20:25 37.64558 -95.29297 37259 ft 483 kts 113°
2026-04-20 20:25 37.61964 -95.21472 37248 ft 484 kts 113°
2026-04-20 20:26 37.59371 -95.13630 37234 ft 485 kts 113°
2026-04-20 20:26 37.56756 -95.05791 37248 ft 485 kts 113°
2026-04-20 20:27 37.54127 -94.97956 37258 ft 486 kts 113°
2026-04-20 20:27 37.51502 -94.90106 37277 ft 486 kts 113°
2026-04-20 20:28 37.49331 -94.83581 37270 ft 487 kts 113°
2026-04-20 20:28 37.46714 -94.75714 37266 ft 487 kts 113°
2026-04-20 20:29 37.43660 -94.66592 37264 ft 487 kts 113°
2026-04-20 20:29 37.41451 -94.60024 37267 ft 487 kts 113°
2026-04-20 20:30 37.38807 -94.52180 37257 ft 487 kts 113°
2026-04-20 20:30 37.36154 -94.44331 37254 ft 488 kts 113°
2026-04-20 20:31 37.33492 -94.36490 37264 ft 488 kts 113°
2026-04-20 20:31 37.30822 -94.28640 37268 ft 489 kts 113°
2026-04-20 20:32 37.28149 -94.20793 37273 ft 489 kts 113°
2026-04-20 20:32 37.25468 -94.12936 37279 ft 490 kts 113°
2026-04-20 20:33 37.22778 -94.05086 37275 ft 490 kts 113°
2026-04-20 20:33 37.20080 -93.97235 37276 ft 490 kts 113°
2026-04-20 20:34 37.17373 -93.89388 37277 ft 490 kts 113°
2026-04-20 20:34 37.14668 -93.81543 37266 ft 491 kts 113°
2026-04-20 20:35 37.11957 -93.73683 37276 ft 492 kts 113°
2026-04-20 20:35 37.09222 -93.65820 37278 ft 493 kts 114°
2026-04-20 20:36 37.06481 -93.57952 37275 ft 493 kts 114°
2026-04-20 20:36 37.03742 -93.50081 37283 ft 493 kts 114°
2026-04-20 20:37 37.00987 -93.42208 37279 ft 493 kts 114°
2026-04-20 20:37 36.98242 -93.34407 37279 ft 493 kts 114°
2026-04-20 20:38 36.95481 -93.26556 37279 ft 493 kts 114°
2026-04-20 20:38 36.92714 -93.18690 37267 ft 494 kts 114°
2026-04-20 20:39 36.89944 -93.10841 37271 ft 494 kts 114°
2026-04-20 20:39 36.87162 -93.02989 37281 ft 494 kts 114°
2026-04-20 20:40 36.84375 -92.95140 37276 ft 495 kts 114°
2026-04-20 20:40 36.81577 -92.87285 37277 ft 495 kts 114°
2026-04-20 20:41 36.78773 -92.79425 37282 ft 496 kts 114°
2026-04-20 20:41 36.75958 -92.71572 37278 ft 496 kts 114°
2026-04-20 20:42 36.73135 -92.63720 37301 ft 496 kts 114°
2026-04-20 20:42 36.70312 -92.55865 37257 ft 497 kts 114°
2026-04-20 20:43 36.67480 -92.47998 37262 ft 498 kts 114°
2026-04-20 20:43 36.64633 -92.40128 37265 ft 499 kts 115°
2026-04-20 20:44 36.61771 -92.32260 37270 ft 499 kts 115°
2026-04-20 20:44 36.58907 -92.24385 37301 ft 500 kts 114°
2026-04-20 20:45 36.56041 -92.16499 37293 ft 500 kts 114°
2026-04-20 20:45 36.53166 -92.08624 37294 ft 500 kts 114°
2026-04-20 20:46 36.50281 -92.00749 37294 ft 501 kts 114°
2026-04-20 20:46 36.47486 -91.92830 37269 ft 501 kts 112°
2026-04-20 20:47 36.44866 -91.84794 37282 ft 503 kts 111°
2026-04-20 20:47 36.42247 -91.76734 37283 ft 504 kts 112°
2026-04-20 20:48 36.39561 -91.68688 37291 ft 505 kts 112°
2026-04-20 20:48 36.36832 -91.60652 37294 ft 505 kts 112°
2026-04-20 20:49 36.34109 -91.52619 37330 ft 505 kts 112°
2026-04-20 20:49 36.31388 -91.44572 37319 ft 506 kts 112°
2026-04-20 20:50 36.28666 -91.36521 37317 ft 506 kts 112°
2026-04-20 20:50 36.25931 -91.28477 37313 ft 506 kts 112°
2026-04-20 20:51 36.23188 -91.20438 37284 ft 507 kts 113°
2026-04-20 20:51 36.20449 -91.12436 37312 ft 508 kts 112°
2026-04-20 20:52 36.17687 -91.04371 37317 ft 509 kts 112°
2026-04-20 20:52 36.14910 -90.96297 37318 ft 510 kts 112°
2026-04-20 20:53 36.12121 -90.88223 37322 ft 510 kts 113°
2026-04-20 20:53 36.09327 -90.80148 37324 ft 511 kts 112°
2026-04-20 20:54 36.06533 -90.72075 37342 ft 511 kts 112°
2026-04-20 20:54 36.03724 -90.63993 37332 ft 512 kts 112°
2026-04-20 20:55 36.00905 -90.55910 37315 ft 512 kts 112°
2026-04-20 20:55 35.98084 -90.47833 37330 ft 512 kts 112°
2026-04-20 20:56 35.95263 -90.39752 37334 ft 513 kts 112°
2026-04-20 20:56 35.92431 -90.31672 37342 ft 513 kts 112°
2026-04-20 20:57 35.89588 -90.23603 37329 ft 513 kts 113°
2026-04-20 20:57 35.86737 -90.15533 37332 ft 514 kts 112°
2026-04-20 20:58 35.83881 -90.07462 37332 ft 514 kts 113°
2026-04-20 20:58 35.81016 -89.99394 37361 ft 514 kts 113°
2026-04-20 20:59 35.78143 -89.91333 37321 ft 513 kts 113°
2026-04-20 20:59 35.75271 -89.83288 37286 ft 514 kts 113°
2026-04-20 21:00 35.72396 -89.75228 37294 ft 515 kts 113°
2026-04-20 21:00 35.69502 -89.67159 37325 ft 516 kts 113°
2026-04-20 21:01 35.66601 -89.59083 37337 ft 516 kts 113°
2026-04-20 21:01 35.63699 -89.51007 37348 ft 516 kts 113°
2026-04-20 21:02 35.60784 -89.42936 37352 ft 517 kts 113°
2026-04-20 21:02 35.57857 -89.34874 37343 ft 516 kts 113°
2026-04-20 21:03 35.54877 -89.26920 37345 ft 516 kts 116°
2026-04-20 21:03 35.51478 -89.19152 37363 ft 516 kts 120°
2026-04-20 21:04 35.47865 -89.11540 37310 ft 517 kts 121°
2026-04-20 21:04 35.44276 -89.03890 37302 ft 518 kts 120°
2026-04-20 21:05 35.40766 -88.96164 37305 ft 519 kts 119°
2026-04-20 21:05 35.37283 -88.88426 37311 ft 519 kts 119°
2026-04-20 21:06 35.33766 -88.80693 37350 ft 520 kts 120°
2026-04-20 21:06 35.30225 -88.72969 37334 ft 520 kts 120°
2026-04-20 21:07 35.26673 -88.65256 37324 ft 520 kts 120°
2026-04-20 21:07 35.23123 -88.57546 37288 ft 520 kts 120°
2026-04-20 21:08 35.19621 -88.49939 37293 ft 521 kts 120°
2026-04-20 21:08 35.16157 -88.42429 37304 ft 521 kts 120°
2026-04-20 21:09 35.12659 -88.34883 37315 ft 522 kts 120°
2026-04-20 21:09 35.09080 -88.27168 37316 ft 522 kts 120°
2026-04-20 21:10 35.05500 -88.19461 37318 ft 523 kts 120°
2026-04-20 21:10 35.02035 -88.12031 37327 ft 523 kts 120°
2026-04-20 21:11 34.98434 -88.04325 37353 ft 523 kts 120°
2026-04-20 21:11 34.94820 -87.96616 37304 ft 524 kts 120°
2026-04-20 21:12 34.91198 -87.88908 37303 ft 525 kts 120°
2026-04-20 21:12 34.87571 -87.81193 37306 ft 525 kts 121°
2026-04-20 21:13 34.84541 -87.74772 37311 ft 526 kts 121°
2026-04-20 21:13 34.80896 -87.67060 37336 ft 526 kts 120°
2026-04-20 21:14 34.76658 -87.58081 37324 ft 527 kts 121°
2026-04-20 21:14 34.73596 -87.51615 37320 ft 527 kts 121°
2026-04-20 21:15 34.69927 -87.43896 37289 ft 527 kts 121°
2026-04-20 21:15 34.66235 -87.36190 37298 ft 528 kts 121°
2026-04-20 21:16 34.62544 -87.28475 37321 ft 529 kts 121°
2026-04-20 21:16 34.58875 -87.20785 37330 ft 530 kts 121°
2026-04-20 21:17 34.55165 -87.13047 37325 ft 530 kts 121°
2026-04-20 21:17 34.51455 -87.05320 37328 ft 530 kts 121°
2026-04-20 21:18 34.47734 -86.97600 37333 ft 530 kts 121°
2026-04-20 21:18 34.44001 -86.89889 37366 ft 531 kts 121°
2026-04-20 21:19 34.40267 -86.82171 37320 ft 531 kts 121°
2026-04-20 21:20 34.34649 -86.70582 37328 ft 533 kts 122°
2026-04-20 21:20 34.30888 -86.62860 37332 ft 533 kts 122°
2026-04-20 21:21 34.27118 -86.55124 37356 ft 533 kts 122°
2026-04-20 21:21 34.23347 -86.47406 37344 ft 534 kts 122°
2026-04-20 21:22 34.19560 -86.39680 37328 ft 534 kts 122°
2026-04-20 21:22 34.15772 -86.31963 37285 ft 534 kts 122°
2026-04-20 21:23 34.11979 -86.24243 37296 ft 535 kts 122°
2026-04-20 21:23 34.08165 -86.16521 37101 ft 535 kts 122°
2026-04-20 21:23 34.06266 -86.12681 36807 ft 527 kts 122°
2026-04-20 21:24 34.04412 -86.08925 36676 ft 517 kts 122°
2026-04-20 21:24 34.02589 -86.05237 36545 ft 507 kts 122°
2026-04-20 21:24 34.00797 -86.01623 36352 ft 499 kts 122°
2026-04-20 21:24 33.99010 -85.98063 36003 ft 495 kts 123°
2026-04-20 21:25 33.97182 -85.94568 35601 ft 493 kts 125°
2026-04-20 21:25 33.95553 -85.91550 35236 ft 492 kts 125°
2026-04-20 21:25 33.93664 -85.88110 34820 ft 490 kts 126°
2026-04-20 21:25 33.91779 -85.84702 34397 ft 489 kts 126°
2026-04-20 21:26 33.89895 -85.81285 33925 ft 489 kts 125°
2026-04-20 21:26 33.88026 -85.77873 33379 ft 488 kts 125°
2026-04-20 21:26 33.86167 -85.74457 32977 ft 485 kts 125°
2026-04-20 21:26 33.84323 -85.71056 32775 ft 488 kts 124°
2026-04-20 21:27 33.82467 -85.67628 32521 ft 490 kts 124°
2026-04-20 21:27 33.80609 -85.64194 32268 ft 490 kts 124°
2026-04-20 21:27 33.78748 -85.60760 32017 ft 490 kts 124°
2026-04-20 21:27 33.76912 -85.57377 31764 ft 490 kts 124°
2026-04-20 21:28 33.75052 -85.53956 31522 ft 489 kts 124°
2026-04-20 21:28 33.73191 -85.50543 31276 ft 488 kts 124°
2026-04-20 21:28 33.71330 -85.47142 31036 ft 487 kts 124°
2026-04-20 21:28 33.69468 -85.43745 30800 ft 487 kts 123°
2026-04-20 21:29 33.67608 -85.40349 30586 ft 487 kts 123°
2026-04-20 21:29 33.65749 -85.36955 30343 ft 487 kts 123°
2026-04-20 21:29 33.63888 -85.33564 30055 ft 486 kts 123°
2026-04-20 21:29 33.62032 -85.30178 29799 ft 486 kts 123°
2026-04-20 21:30 33.60174 -85.26794 29520 ft 485 kts 123°
2026-04-20 21:30 33.58317 -85.23413 29272 ft 484 kts 123°
2026-04-20 21:30 33.56465 -85.20048 29348 ft 484 kts 123°
2026-04-20 21:31 33.52749 -85.13312 29338 ft 484 kts 123°
2026-04-20 21:31 33.49033 -85.06574 29330 ft 484 kts 123°
2026-04-20 21:32 33.45320 -84.99841 29325 ft 485 kts 123°
2026-04-20 21:32 33.41587 -84.93114 29299 ft 485 kts 123°
2026-04-20 21:33 33.37844 -84.86387 29293 ft 486 kts 124°
2026-04-20 21:33 33.34094 -84.79648 29298 ft 486 kts 123°
2026-04-20 21:34 33.30345 -84.72919 29302 ft 486 kts 124°
2026-04-20 21:34 33.26600 -84.66200 29332 ft 486 kts 124°
2026-04-20 21:35 33.22836 -84.59473 29315 ft 487 kts 124°
2026-04-20 21:35 33.19073 -84.52743 29311 ft 488 kts 124°
2026-04-20 21:36 33.15303 -84.46018 29311 ft 487 kts 124°
2026-04-20 21:36 33.11515 -84.39303 29312 ft 487 kts 124°
2026-04-20 21:37 33.07759 -84.32640 29314 ft 487 kts 124°
2026-04-20 21:37 33.03956 -84.25887 29322 ft 488 kts 124°
2026-04-20 21:38 33.00192 -84.19223 29294 ft 488 kts 124°
2026-04-20 21:38 32.96412 -84.12563 29301 ft 488 kts 124°
2026-04-20 21:39 32.92591 -84.05827 29305 ft 488 kts 124°
2026-04-20 21:39 32.88815 -83.99180 29307 ft 487 kts 124°
2026-04-20 21:40 32.85012 -83.92507 29294 ft 487 kts 124°
2026-04-20 21:40 32.81211 -83.85838 29304 ft 488 kts 124°
2026-04-20 21:41 32.77371 -83.79121 29289 ft 488 kts 124°
2026-04-20 21:41 32.73575 -83.72491 29291 ft 489 kts 124°
2026-04-20 21:42 32.70018 -83.65603 29256 ft 490 kts 113°
2026-04-20 21:42 32.68063 -83.57867 29256 ft 485 kts 97°
2026-04-20 21:43 32.66860 -83.49992 29284 ft 486 kts 97°
2026-04-20 21:43 32.65646 -83.42093 29295 ft 486 kts 97°
2026-04-20 21:44 32.64425 -83.34254 29290 ft 487 kts 97°
2026-04-20 21:44 32.63187 -83.26348 29291 ft 487 kts 97°
2026-04-20 21:45 32.61946 -83.18447 29290 ft 493 kts 97°
2026-04-20 21:45 32.61320 -83.14446 29121 ft 492 kts 97°
2026-04-20 21:45 32.60694 -83.10469 28585 ft 487 kts 97°
2026-04-20 21:45 32.60077 -83.06551 27776 ft 480 kts 97°
2026-04-20 21:46 32.59468 -83.02699 27042 ft 471 kts 97°
2026-04-20 21:46 32.58868 -82.98919 26396 ft 462 kts 97°
2026-04-20 21:46 32.58284 -82.95233 25990 ft 448 kts 97°
2026-04-20 21:46 32.57715 -82.91654 25494 ft 437 kts 97°
2026-04-20 21:47 32.57157 -82.88156 25009 ft 426 kts 97°
2026-04-20 21:47 32.56608 -82.84741 24523 ft 416 kts 97°
2026-04-20 21:47 32.56038 -82.81413 24071 ft 407 kts 99°
2026-04-20 21:47 32.55377 -82.78195 23666 ft 399 kts 101°
2026-04-20 21:48 32.54646 -82.75024 23252 ft 399 kts 103°
2026-04-20 21:48 32.53882 -82.71874 22864 ft 396 kts 103°
2026-04-20 21:48 32.53118 -82.68746 22471 ft 395 kts 103°
2026-04-20 21:48 32.52369 -82.65628 22083 ft 392 kts 102°
2026-04-20 21:49 32.51635 -82.62518 21686 ft 391 kts 102°
2026-04-20 21:49 32.50916 -82.59419 21298 ft 389 kts 102°
2026-04-20 21:49 32.50207 -82.56334 20902 ft 387 kts 102°
2026-04-20 21:49 32.49503 -82.53263 20515 ft 386 kts 102°
2026-04-20 21:50 32.48799 -82.50203 20122 ft 384 kts 102°
2026-04-20 21:50 32.48096 -82.47156 19725 ft 383 kts 102°
2026-04-20 21:50 32.47392 -82.44111 19330 ft 382 kts 102°
2026-04-20 21:50 32.46691 -82.41081 18937 ft 381 kts 102°
2026-04-20 21:51 32.45991 -82.38061 18539 ft 380 kts 102°
2026-04-20 21:51 32.45287 -82.35040 17931 ft 383 kts 102°
2026-04-20 21:51 32.44577 -82.31986 17444 ft 383 kts 102°
2026-04-20 21:51 32.43872 -82.28966 17051 ft 380 kts 102°
2026-04-20 21:52 32.43166 -82.25964 16651 ft 377 kts 102°
2026-04-20 21:52 32.42466 -82.22990 16251 ft 374 kts 102°
2026-04-20 21:52 32.41771 -82.20027 15861 ft 372 kts 102°
2026-04-20 21:52 32.41082 -82.17082 15460 ft 370 kts 102°
2026-04-20 21:53 32.40394 -82.14148 15066 ft 368 kts 101°
2026-04-20 21:53 32.39710 -82.11235 14669 ft 367 kts 101°
2026-04-20 21:53 32.39031 -82.08337 14274 ft 365 kts 101°
2026-04-20 21:53 32.38354 -82.05449 13853 ft 363 kts 101°
2026-04-20 21:54 32.37681 -82.02580 13441 ft 361 kts 101°
2026-04-20 21:54 32.37014 -81.99735 13041 ft 358 kts 101°
2026-04-20 21:54 32.36354 -81.96914 12657 ft 355 kts 101°
2026-04-20 21:54 32.35701 -81.94125 12289 ft 351 kts 101°
2026-04-20 21:55 32.35050 -81.91358 11945 ft 347 kts 102°
2026-04-20 21:55 32.34398 -81.88607 11547 ft 345 kts 102°
2026-04-20 21:55 32.33753 -81.85883 11121 ft 344 kts 100°
2026-04-20 21:55 32.33308 -81.83167 10984 ft 330 kts 96°
2026-04-20 21:56 32.32902 -81.80550 10938 ft 318 kts 96°
2026-04-20 21:56 32.32493 -81.77941 10280 ft 327 kts 96°
2026-04-20 21:56 32.32082 -81.75303 9623 ft 322 kts 96°
2026-04-20 21:56 32.31681 -81.72765 9257 ft 308 kts 97°
2026-04-20 21:57 32.31423 -81.71130 8908 ft 303 kts 97°
2026-04-20 21:57 32.30919 -81.67876 8323 ft 298 kts 97°
2026-04-20 21:57 32.30552 -81.65494 8177 ft 293 kts 97°
2026-04-20 21:57 32.30186 -81.63131 7907 ft 291 kts 97°
2026-04-20 21:58 32.29944 -81.61577 7697 ft 289 kts 97°
2026-04-20 21:58 32.29580 -81.59246 7382 ft 288 kts 98°
2026-04-20 21:58 32.29219 -81.56931 7062 ft 286 kts 98°
2026-04-20 21:58 32.28743 -81.53888 6660 ft 283 kts 98°
2026-04-20 21:59 32.28502 -81.52354 6465 ft 280 kts 98°
2026-04-20 21:59 32.28149 -81.50098 6113 ft 279 kts 98°
2026-04-20 21:59 32.27798 -81.47846 5803 ft 278 kts 98°
2026-04-20 21:59 32.27450 -81.45605 5496 ft 276 kts 98°
2026-04-20 22:00 32.27104 -81.43380 5190 ft 275 kts 98°
2026-04-20 22:00 32.26755 -81.41153 4876 ft 277 kts 98°
2026-04-20 22:00 32.26404 -81.38923 4568 ft 275 kts 98°
2026-04-20 22:00 32.26055 -81.36707 4265 ft 273 kts 98°
2026-04-20 22:01 32.25709 -81.34518 3968 ft 270 kts 98°
2026-04-20 22:01 32.25364 -81.32361 3666 ft 262 kts 99°
2026-04-20 22:01 32.25033 -81.30303 3378 ft 249 kts 98°
2026-04-20 22:01 32.24716 -81.28344 3107 ft 237 kts 98°
2026-04-20 22:02 32.24415 -81.26482 2855 ft 225 kts 98°
2026-04-20 22:02 32.24134 -81.24719 2616 ft 213 kts 99°
2026-04-20 22:02 32.23870 -81.23046 2405 ft 201 kts 99°
2026-04-20 22:02 32.23604 -81.21489 2160 ft 186 kts 107°
2026-04-20 22:03 32.22875 -81.20362 1968 ft 166 kts 148°
2026-04-20 22:03 32.21807 -81.20091 1746 ft 153 kts 180°
2026-04-20 22:03 32.20757 -81.20086 1526 ft 148 kts 179°
2026-04-20 22:03 32.19732 -81.20076 1321 ft 146 kts 179°
2026-04-20 22:04 32.18711 -81.20065 1119 ft 147 kts 179°
2026-04-20 22:04 32.17695 -81.20054 923 ft 145 kts 179°
2026-04-20 22:04 32.16705 -81.20045 723 ft 139 kts 178°
2026-04-20 22:04 32.15754 -81.20037 528 ft 136 kts 177°
2026-04-20 22:05 32.14817 -81.20029 344 ft 133 kts 178°
2026-04-20 22:05 32.13903 -81.20015 178 ft 133 kts 176°
2026-04-20 22:05 32.12974 -81.20017 52 ft 124 kts 176°
2026-04-20 22:05 32.12349 -81.20004 48 ft 48 kts 180°
2026-04-20 22:06 32.12202 -81.20008 49 ft 20 kts 193°
2026-04-20 22:06 32.12152 -81.20072 48 ft 11 kts 266°
2026-04-20 22:06 32.12164 -81.20175 45 ft 15 kts 307°
2026-04-20 22:06 32.12270 -81.20202 46 ft 17 kts 359°
2026-04-20 22:07 32.12391 -81.20203 49 ft 18 kts 359°
2026-04-20 22:07 32.12517 -81.20219 49 ft 20 kts 337°
2026-04-20 22:07 32.12649 -81.20297 48 ft 22 kts 335°
2026-04-20 22:07 32.12802 -81.20334 51 ft 23 kts 359°
2026-04-20 22:08 32.12970 -81.20333 54 ft 25 kts
2026-04-20 22:08 32.13147 -81.20331 54 ft 27 kts 359°
2026-04-20 22:08 32.13308 -81.20331 53 ft 19 kts 359°
2026-04-20 22:08 32.13432 -81.20350 52 ft 17 kts 313°
2026-04-20 22:09 32.13446 -81.20482 45 ft 11 kts 271°
2026-04-20 22:09 32.13466 -81.20565 41 ft 0 kts 326°
2026-04-20 22:09 32.13475 -81.20568 41 ft 3 kts 341°
2026-04-20 22:09 32.13507 -81.20592 41 ft 7 kts 326°
2026-04-20 22:10 32.13530 -81.20610 40 ft 1 kts 326°
2026-04-20 22:10 32.13531 -81.20611 40 ft 0 kts 326°